C/2022 O1 ( ATLAS )

Japanese version
Home page
Updated on March 4, 2023

---------------------------------------------------------------------

* Profile

Discovery Date July 26, 2022
Magnitude 19.3 mag
Discoverer Asteroid Terrestrial-Impact Last Alert System (ATLAS) search program

* Orbital Elements

Epoch 2023 Feb. 25.0 TT = JDT 2460000.5
T 2022 Feb. 15.67587 TT                                 Rudenko
q   7.4303819            (2000.0)            P               Q
z  -0.0006015      Peri.  268.89463     +0.23607097     +0.64861518
 +/-0.0000048      Node    49.91372     +0.17070118     +0.70536749
e   1.0044693      Incl.   71.04313     -0.95662511     +0.28592839
>From 185 observations 2022 July 26-2023 Feb. 26, mean residual 0".5.

* Magnitudes Graph

        m1 = 5.5 + 5 log d + 10.0 log r

---------------------------------------------------------------------

The orbital elements are published on M.P.E.C. 2023-D72.
The magnitudes graphs are made with Comet for Windows.

---------------------------------------------------------------------

Copyright(C) Seiichi Yoshida (comet@aerith.net). All rights reserved.